Location: Home
(42.5358°N, 72.7383°W)
Time: 08:25:54
(UTC-05:00)

Envisat - Pass Details

Date: 28 October 2021
Orbit: 764 x 766 km, 98.2° (Epoch: 07 December)

Event Time Altitude Azimuth Distance (km) Brightness Sun altitude
Rises 04:31:37 0° 34° (NE) 3,240 6.8 -31.5°
Reaches altitude 10° 04:35:20 10° 62° (ENE) 2,306 6.3 -30.8°
Maximum altitude 04:37:36 13° 89° (E) 2,101 6.1 -30.4°
Drops below altitude 10° 04:39:53 10° 116° (ESE) 2,298 6.1 -30.0°
Sets 04:43:33 0° 143° (SE) 3,217 6.6 -29.3°
